• Join FlightAware (Why Join?)
  • Login
  • US Flag 
12:25AM EST


 

Airport Tracker/Info


-or-


 

Live Flight TrackerFlight Track Log ✈ N3442T ✈ 24-Jul-2013 ✈ KHWV - KDXR

Flight Track Log - Related Links

Times and Time Zones

All times are in EDT time to prevent confusion due to time zone crossing. See the N3442T flight status page for this flight to view local times or setup timezone preferences in your user account.

Time Position Orientation Groundspeed Altitude Reporting Facility
EDT Latitude Longitude Course Direction KTS MPH feet Rate Location/Type
09:36AM 40.8167 -72.9167 270° West 123 142 1,900  Level New York TRACON
09:37AM 40.8500 -72.9333 339° North 141 162 2,600 600 Climbing New York TRACON
09:38AM 40.8833 -72.9667 323° Northwest 151 174 3,100 550 Climbing New York TRACON
09:39AM 40.9167 -72.9833 339° North 153 176 3,700 450 Climbing New York TRACON
09:40AM 40.9500 -73.0333 311° West 159 183 4,000 150 Climbing New York TRACON
09:41AM 40.9667 -73.0833 294° West 163 188 4,000  Level New York TRACON
09:42AM 41.0000 -73.1333 311° West 158 182 4,000  Level New York TRACON
09:43AM 41.0167 -73.1833 294° West 155 178 4,000  Level New York TRACON
09:44AM 41.0500 -73.2167 323° Northwest 156 180 4,000  Level New York TRACON
09:45AM 41.0667 -73.2667 294° West 154 177 4,000  Level New York TRACON
09:46AM 41.0833 -73.3167 294° West 154 177 4,000 -250 Level New York TRACON
09:47AM 41.1167 -73.3667 312° West 151 174 3,500 -450 Descending New York TRACON
09:48AM 41.1333 -73.4167 294° West 144 166 3,100 -250 Descending New York TRACON
09:49AM 41.1500 -73.4500 304° West 127 146 3,000 -48 Descending New York TRACON
09:50AM 41.1667 -73.5000 294° West 130 150 3,000  Level New York TRACON
09:51AM 41.1833 -73.5500 294° West 129 148 3,000  Level New York TRACON
09:52AM 41.2000 -73.5833 304° West 129 148 3,000  Level New York TRACON
09:53AM 41.2167 -73.6333 294° West 125 144 3,000  Level New York TRACON
09:54AM 41.2333 -73.6667 304° West 127 146 3,000  Level New York TRACON
09:55AM 41.2500 -73.7000 304° West 133 153 3,000  Level New York TRACON
09:56AM 41.2833 -73.7000 360° North 130 150 3,000 -50 Level New York TRACON
09:57AM 41.3167 -73.6833 21° North 142 163 2,900 -316 Descending New York TRACON
09:58AM 41.3333 -73.6333 66° East 137 158 2,400 -474 Descending New York TRACON
09:59AM 41.3333 -73.6000 90° East 103 119 2,000 -333 Descending New York TRACON
10:00AM 41.3500 -73.5500 66° East 98 113 1,700 -141 Descending New York TRACON
10:01AM 41.3500 -73.5167 90° East 100 115 1,700 -50 Level New York TRACON
10:02AM 41.3500 -73.4833 90° East 112 129 1,600 -103 Descending New York TRACON